Weather History for KOLF - August, 2013

Change the Weather History Date:

Saturday, August 24, 2013

  Actual Average Record
Temperature  
Mean Temperature 74 °F -  
Max Temperature 89 °F 84 °F 98 °F (1999)
Min Temperature 59 °F 51 °F 45 °F (2007)
Degree Days  
Heating Degree Days 0    
Cooling Degree Days 9    
Growing Degree Days 26 (Base 50)    
Moisture  
Dew Point 55 °F    
Average Humidity 50    
Maximum Humidity 81    
Minimum Humidity 30    
Precipitation  
Precipitation T in 0.03 in 0.85 in (2014)
Month to date precipitation 1.41 1.10  
Year to date precipitation 11.42 9.49  
Sea Level Pressure  
Sea Level Pressure 29.74 in    
Wind  
Wind Speed 6 mph (WSW)    
Max Wind Speed 23 mph    
Max Gust Speed 30 mph    
Visibility 9 miles    
Events Rain , Thunderstorm    
T = Trace of Precipitation, MM = Missing Value Source: NWS Daily Summary

Daily Weather History Graph

Daily Weather History Graph

Search for Another Location

Airport or City:

Trip Planner

Search our weather history database for the weather conditions in past years. The results will help you decide how hot, cold, wet, or windy it might be!

Date:

Astronomy

Aug. 24, 2013 Rise Set
Actual Time 6:09 AM MDT 7:58 PM MDT
Civil Twilight 5:36 AM MDT 8:31 PM MDT
Nautical Twilight 4:55 AM MDT 9:11 PM MDT
Astronomical Twilight 4:10 AM MDT 9:56 PM MDT
Moon 9:29 PM MDT (8/24) 10:35 AM MDT (8/24)
Length of Visible Light 14h 54m
Length of Day
13h 48m
Waning Gibbous, 84% of the Moon is Illuminated
Aug 24
Waning Gibbous
Aug 28
Last Quarter
Sep 5
New
Sep 12
First Quarter
Sep 19
Full

Hourly Weather History & Observations

Time (MDT) Temp. Heat Index Dew Point Humidity Pressure Visibility Wind Dir Wind Speed Gust Speed Precip Events Conditions
12:53 AM 71.1 °F - 61.0 °F 70% 29.67 in 9.0 mi South 3.5 mph - N/A   Clear
1:53 AM 70.0 °F - 61.0 °F 73% 29.66 in 10.0 mi Calm Calm - N/A   Clear
2:53 AM 66.9 °F - 61.0 °F 81% 29.68 in 10.0 mi South 3.5 mph - N/A   Clear
3:17 AM 78.8 °F - 51.8 °F 39% 29.74 in 8.0 mi West 15.0 mph 19.6 mph N/A   Scattered Clouds
3:53 AM 81.0 °F - 48.9 °F 33% 29.66 in 8.0 mi West 23.0 mph 29.9 mph N/A   Clear
4:22 AM 82.4 °F - 48.2 °F 30% 29.70 in 8.0 mi WNW 18.4 mph - N/A Thunderstorm Partly Cloudy
4:45 AM 80.6 °F - 48.2 °F 32% 29.70 in 8.0 mi NW 12.7 mph - N/A Thunderstorm Thunderstorm
4:53 AM 79.0 °F - 52.0 °F 39% 29.68 in 7.0 mi Variable 3.5 mph - 0.00 in Rain , Thunderstorm Light Thunderstorms and Rain
5:15 AM 75.2 °F - 53.6 °F 47% 29.72 in 7.0 mi SE 6.9 mph - 0.00 in   Mostly Cloudy
5:53 AM 71.1 °F - 59.0 °F 66% 29.68 in 6.0 mi NNE 4.6 mph - 0.00 in   Haze
6:53 AM 73.9 °F - 55.9 °F 53% 29.71 in 6.0 mi SW 8.1 mph - N/A   Haze
7:53 AM 73.9 °F - 57.0 °F 55% 29.73 in 9.0 mi SSW 3.5 mph - N/A   Mostly Cloudy
8:53 AM 73.0 °F - 59.0 °F 61% 29.74 in 8.0 mi SSW 3.5 mph - 0.00 in   Overcast
9:53 AM 75.0 °F - 60.1 °F 60% 29.75 in 8.0 mi SW 3.5 mph - N/A   Overcast
10:53 AM 77.0 °F - 60.1 °F 56% 29.77 in 9.0 mi Calm Calm - 0.00 in   Scattered Clouds
11:53 AM 79.0 °F - 59.0 °F 50% 29.77 in 10.0 mi WSW 8.1 mph - N/A   Clear
12:53 PM 80.1 °F 80.2 °F 55.9 °F 43% 29.77 in 10.0 mi WSW 6.9 mph - N/A   Clear
1:53 PM 78.1 °F - 54.0 °F 43% 29.78 in 10.0 mi West 8.1 mph - N/A   Clear
2:53 PM 82.9 °F 81.9 °F 54.0 °F 37% 29.77 in 10.0 mi SW 6.9 mph - N/A   Clear
3:53 PM 87.1 °F 85.3 °F 55.0 °F 33% 29.75 in 10.0 mi Variable 5.8 mph - N/A   Clear
4:53 PM 89.1 °F 87.1 °F 55.0 °F 31% 29.74 in 10.0 mi SW 8.1 mph - N/A   Clear
5:53 PM 87.1 °F - 52.0 °F 30% 29.75 in 10.0 mi SW 10.4 mph - N/A   Clear
6:53 PM 84.0 °F - 52.0 °F 33% 29.75 in 10.0 mi WSW 5.8 mph - N/A   Clear
7:53 PM 73.9 °F - 54.0 °F 50% 29.77 in 9.0 mi SSW 3.5 mph - N/A   Clear
8:53 PM 66.9 °F - 55.0 °F 66% 29.81 in 6.0 mi Calm Calm - N/A   Haze
9:53 PM 69.1 °F - 53.1 °F 57% 29.83 in 10.0 mi West 3.5 mph - N/A   Clear
10:53 PM 64.9 °F - 53.1 °F 65% 29.85 in 10.0 mi Calm Calm - N/A   Clear
11:53 PM 60.1 °F - 52.0 °F 75% 29.85 in 10.0 mi Calm Calm - N/A   Clear